| time (UTC) | temp C | wind direction | speed KPH | gust KPH | rain 1hr cm | rain 24hr cm | rain mn cm | humidity % | barometer mb |
| 20260504110550 | 13 | 211 | 1.6 | 4.8 | 0.00 | 0.28 | 0.03 | 75 | 1015.1 |
| 20260504100550 | 12 | 196 | 4.8 | 4.8 | 0.00 | 0.28 | 0.03 | 82 | 1015.4 |
| 20260504080944 | 11 | 139 | 3.2 | 8.0 | 0.03 | 0.28 | 0.03 | 90 | 1015.4 |
| 20260504080550 | 11 | 139 | 3.2 | 8.0 | 0.03 | 0.28 | 0.03 | 90 | 1015.4 |
| 20260504041808 | 8 | 5 | 1.6 | 1.6 | 0.03 | 0.28 | 0.03 | 95 | 1014.2 |
| 20260504030307 | 8 | 5 | 1.6 | 3.2 | 0.00 | 0.25 | 0.00 | 94 | 1014.1 |
| 20260504024808 | 9 | 5 | 0.0 | 0.0 | 0.00 | 0.25 | 0.00 | 94 | 1014.1 |
| 20260504023308 | 9 | 5 | 0.0 | 0.0 | 0.00 | 0.25 | 0.00 | 95 | 1014.1 |
| 20260504021808 | 9 | 5 | 3.2 | 4.8 | 0.00 | 0.25 | 0.00 | 95 | 1014.1 |
| 20260504020307 | 9 | 5 | 3.2 | 4.8 | 0.00 | 0.25 | 0.00 | 95 | 1014.1 |
| 20260504011808 | 9 | 355 | 0.0 | 0.0 | 0.00 | 0.25 | 0.00 | 94 | 1014.2 |
| 20260504010309 | 9 | 355 | 1.6 | 1.6 | 0.00 | 0.25 | 0.00 | 94 | 1014.2 |
| 20260504003308 | 10 | 352 | 1.6 | 3.2 | 0.00 | 0.25 | 0.00 | 95 | 1014.2 |
| 20260504001808 | 10 | 0 | 0.0 | 0.0 | 0.00 | 0.28 | 0.00 | 95 | 1014.2 |
| 20260504000308 | 10 | 0 | 1.6 | 4.8 | 0.00 | 0.28 | 0.00 | 95 | 1014.2 |
| 20260503234808 | 10 | 352 | 0.0 | 1.6 | 0.00 | 0.28 | 0.00 | 95 | 1014.2 |
| 20260503233308 | 10 | 343 | 4.8 | 8.0 | 0.00 | 0.28 | 0.00 | 95 | 1014.2 |
| 20260503230307 | 10 | 350 | 3.2 | 4.8 | 0.00 | 0.28 | 0.00 | 95 | 1014.2 |
| 20260503223307 | 10 | 335 | 3.2 | 8.0 | 0.00 | 0.28 | 0.00 | 95 | 1014.2 |
| 20260503221807 | 10 | 331 | 4.8 | 8.0 | 0.00 | 0.30 | 0.00 | 96 | 1014.2 |
| 20260503220308 | 10 | 337 | 4.8 | 8.0 | 0.00 | 0.30 | 0.00 | 96 | 1014.1 |
| 20260503214807 | 10 | 353 | 1.6 | 3.2 | 0.00 | 0.33 | 0.33 | 96 | 1014.1 |
| 20260503211808 | 10 | 352 | 3.2 | 4.8 | 0.00 | 0.33 | 0.33 | 97 | 1014.1 |
| 20260503210310 | 10 | 18 | 4.8 | 4.8 | 0.00 | 0.33 | 0.33 | 97 | 1013.9 |
| 20260503204810 | 11 | 65 | 1.6 | 3.2 | 0.00 | 0.33 | 0.33 | 97 | 1013.8 |
| 20260503203308 | 11 | 65 | 3.2 | 4.8 | 0.00 | 0.33 | 0.33 | 96 | 1013.6 |
| 20260503201809 | 11 | 65 | 0.0 | 0.0 | 0.00 | 0.33 | 0.33 | 96 | 1013.4 |
| 20260503200309 | 11 | 65 | 0.0 | 1.6 | 0.00 | 0.33 | 0.33 | 96 | 1013.2 |
| 20260503184810 | 12 | 84 | 0.0 | 0.0 | 0.00 | 0.33 | 0.33 | 94 | 1012.6 |
| 20260503173308 | 12 | 11 | 1.6 | 4.8 | 0.00 | 0.33 | 0.33 | 93 | 1012.5 |
| 20260503171809 | 12 | 38 | 3.2 | 4.8 | 0.10 | 0.33 | 0.33 | 93 | 1012.5 |
| 20260503170309 | 12 | 68 | 1.6 | 4.8 | 0.15 | 0.33 | 0.33 | 92 | 1012.4 |
| 20260503150309 | 13 | 81 | 3.2 | 4.8 | 0.03 | 0.23 | 0.18 | 91 | 1012.3 |
| 20260503140308 | 13 | 56 | 3.2 | 4.8 | 0.00 | 0.23 | 0.15 | 90 | 1012.4 |